Location: ??????
(38.0131°N, 23.7723°E)
Time: 18:12:24
(UTC+00:00)

Okean-O - Pass Details

Date: 31 May 2022
Orbit: 638 x 640 km, 98.1° (Epoch: 27 June)

Event Time Altitude Azimuth Distance (km) Brightness Sun altitude
Rises 19:00:36 0° 201° (SSW) 2,928 5.8 -13.5°
Reaches altitude 10° 19:03:18 10° 218° (SW) 2,025 5.1 -13.9°
Maximum altitude 19:06:33 20° 266° (W) 1,478 5.0 -14.4°
Drops below altitude 10° 19:09:49 10° 313° (NW) 2,035 6.6 -14.8°
Sets 19:12:33 0° 331° (NNW) 2,949 7.6 -15.2°
